Regional Weather Roundup
Issued by NWS State College, PA

Home | Current Version | Previous Version | Graphics & Text | Print | Product List | Glossary Off
Versions: 1 2 3 4 5 6 7 8 9 10 11 12 13 14 15 16 17 18 19 20 21 22 23 24 25 26 27 28 29 30 31 32 33 34 35 36 37 38 39 40 41 42 43 44 45 46 47 48 49 50

000
ASUS41 KCTP 241910
RWRCTP

REGIONAL WEATHER ROUNDUP
NATIONAL WEATHER SERVICE STATE COLLEGE PA
300 PM EDT FRI MAR 24 2017

Note: "fair" indicates few or no clouds below 12,000 feet with no
significant weather and/or obstructions to visibility.

* = STATION THAT DOES NOT REPORT PRECIPITATION /E.G. RAIN...SNOW...ETC/
    THUNDER OR FOG.

PAZ002>004-007>009-013>016-020>023-029>032-242000-
WESTERN PENNSYLVANIA

CITY           SKY/WX    TMP DP  RH WIND       PRES   REMARKS
ERIE           CLOUDY    70  48  45 SW17G26   29.99F
MEADVILLE      CLOUDY    67  47  48 SW21G26   30.05F
FRANKLIN*      CLOUDY    66  48  52 SW15G24   30.07F
NEW CASTLE     FAIR      70  50  49 SW10G20   30.08F
BEAVER COUNTY  SUNNY     70  48  46 SW16G22   30.09F
BUTLER*        MOSUNNY   70  48  46 SW14G21   30.10F
PITTSBURGH INT CLOUDY    71  48  43 SW13G20   30.09F
PITTSBURGH     CLOUDY    71  46  40 SW14G26   30.10F
INDIANA*       SUNNY     68  50  52 SW12G18   30.13F
LATROBE        MOSUNNY   68  46  45 SW20G28   30.13F
WASHINGTON CO* CLOUDY    72  46  40 SW12G24   30.14F
$$

PAZ004>006-010>012-017>019-024>028-033>037-041-042-045-046-049>053-242000-
CENTRAL PENNSYLVANIA

CITY           SKY/WX    TMP DP  RH WIND       PRES   REMARKS
BRADFORD       CLOUDY    61  45  55 W12G23    30.03F
DUBOIS         MOSUNNY   63  43  48 SW16G26   30.08F
CLEARFIELD       N/A    N/A N/A N/A MISG      30.09F
JOHNSTOWN      CLOUDY    64  47  53 W16G25    30.13F
ALTOONA        PTSUNNY   64  47  53 S13       30.13F
STATE COLLEGE  SUNNY     57  41  54 SW10      30.12F
WILLIAMSPORT   MOSUNNY   49  33  54 E10G21    30.14F
SELINSGROVE    CLOUDY    50  37  61 S13G18    30.17F
FT INDIANTOWN  PTSUNNY   52  39  60 SW12      30.20F
CAPITAL CITY   MOSUNNY   54  36  50 SW10      30.21F
HARRISBURG     CLOUDY    54  39  57 VRB7      30.21F
YORK           PTSUNNY   55  41  59 SW12G18   30.21F
$$

PAZ038>040-043-044-047-048-054-055-060>062-067>071-242000-
EASTERN PENNSYLVANIA

CITY           SKY/WX    TMP DP  RH WIND       PRES   REMARKS
SCRANTON       CLOUDY    45  34  65 SW12      30.13F
MOUNT POCONO   CLOUDY    38  33  82 SW12      30.13F
ALLENTOWN      MOSUNNY   51  30  44 S16       30.22F
QUAKERTOWN*    MOCLDY    50  32  50 S10       30.23F
READING        MOSUNNY   54  36  50 SW14      30.21F
LANCASTER      PTSUNNY   55  39  54 SW10      30.22F
COATESVILLE    PTCLDY    52  34  50 SW10G18   30.25F
POTTSTOWN      MOSUNNY   51  31  46 S10       30.25F
BLUE BELL      MOSUNNY   52  32  46 SW8       30.23F
DOYLESTOWN     MOSUNNY   47  30  51 SW14G21   30.22F
WILLOW GROVE   NOT AVBL
NORTH PHILA    CLOUDY    56  31  38 SW16G26   30.26F
PHILADELPHIA   PTSUNNY   56  30  37 SW20      30.27F
$$




USA.gov is the U.S. government's official web portal to all federal, state and local government web resources and services.